Location: Forshaga
(59.5328°N, 13.4805°E)
Time: 23:26:36
(UTC+02:00)

ISS - Pass Details

Date: 06 March 2021
Orbit: 418 x 422 km, 51.6° (Epoch: 12 April)

Event Time Altitude Azimuth Distance (km) Brightness Sun altitude
Exits shadow 04:08:06 18° 151° (SSE) 1,117 -1.6 -20.7°
Drops below altitude 10° 04:09:31 10° 130° (SE) 1,500 -0.7 -20.6°
Sets 04:11:55 0° 114° (ESE) 2,364 0.7 -20.3°
